Weather History for Cumberland, MD

Change the Weather History Date:

Wednesday, January 15, 2014

  Actual Average (KMRB) Record (KMRB)
Temperature  
Mean Temperature 32 °F 31 °F  
Max Temperature 39 °F 39 °F 77 °F (1932)
Min Temperature 26 °F 22 °F -2 °F (1957)
Degree Days  
Heating Degree Days 32 34  
Month to date heating degree days 510  
Since 1 July heating degree days 2536  
Cooling Degree Days 0 0  
Month to date cooling degree days 0  
Year to date cooling degree days 0  
Moisture  
Dew Point 26 °F    
Average Humidity 78    
Maximum Humidity 100    
Minimum Humidity 48    
Precipitation  
Precipitation 0.00 in 0.08 in 1.17 in (1995)
Month to date precipitation 1.13  
Year to date precipitation 1.13  
Sea Level Pressure  
Sea Level Pressure 29.96 in    
Wind  
Wind Speed 1 mph (WNW)    
Max Wind Speed 13 mph    
Max Gust Speed 18 mph    
Visibility 8 miles    
Events      
T = Trace of Precipitation, MM = Missing Value Source: NWS Daily Summary

Daily Weather History Graph

Daily Weather History Graph

Search for Another Location

Airport:

Trip Planner

Search our weather history database for the weather conditions in past years. The results will help you decide how hot, cold, wet, or windy it might be!

Date:

Astronomy

Jan. 15, 2014 Rise Set
Actual Time 7:33 AM EST 5:15 PM EST
Civil Twilight 7:04 AM EST 5:44 PM EST
Nautical Twilight 6:31 AM EST 6:18 PM EST
Astronomical Twilight 5:58 AM EST 6:50 PM EST
Moon 5:11 PM EST (1/15) 6:49 AM EST (1/15)
Length of Visible Light 10h 40m
Length of Day
9h 41m
Full, 100% of the Moon is Illuminated
Jan 15
Full
Jan 15
Full
Jan 24
Last Quarter
Jan 30
New
Feb 6
First Quarter

Hourly Weather History & Observations

Time (EST) Temp. Windchill Dew Point Humidity Pressure Visibility Wind Dir Wind Speed Gust Speed Precip Events Conditions
12:07 AM 32.0 °F - 30.2 °F 93% 29.91 in 10.0 mi Calm Calm - N/A   Clear
12:27 AM 32.0 °F - 30.2 °F 93% 29.91 in 10.0 mi Calm Calm - N/A   Clear
12:47 AM 30.2 °F - 30.2 °F 100% 29.91 in 7.0 mi Calm Calm - N/A   Clear
1:07 AM 30.2 °F - 30.2 °F 100% 29.90 in 5.0 mi Calm Calm - N/A   Clear
1:27 AM 30.2 °F - 28.4 °F 93% 29.91 in 4.0 mi Calm Calm - N/A   Clear
1:48 AM 30.2 °F - 30.2 °F 100% 29.91 in 1.0 mi Calm Calm - N/A   Unknown
2:08 AM 28.4 °F - 28.4 °F 100% 29.91 in 2.0 mi Calm Calm - N/A   Clear
2:28 AM 28.4 °F - 28.4 °F 100% 29.92 in 7.0 mi Calm Calm - N/A   Clear
2:48 AM 30.2 °F - 28.4 °F 93% 29.92 in 4.0 mi Calm Calm - N/A   Clear
3:08 AM 28.4 °F - 28.4 °F 100% 29.92 in 2.0 mi Calm Calm - N/A   Clear
3:28 AM 28.4 °F - 28.4 °F 100% 29.92 in 0.5 mi Calm Calm - N/A   Unknown
3:48 AM 28.4 °F - 28.4 °F 100% 29.92 in 0.2 mi Calm Calm - N/A   Unknown
4:08 AM 26.6 °F - 26.6 °F 100% 29.92 in 7.0 mi Calm Calm - N/A   Scattered Clouds
4:28 AM 28.4 °F - 28.4 °F 100% 29.91 in 5.0 mi Calm Calm - N/A   Clear
4:48 AM 28.4 °F - 28.4 °F 100% 29.91 in 3.0 mi Calm Calm - N/A   Unknown
5:08 AM 28.4 °F - 28.4 °F 100% 29.92 in 4.0 mi Calm Calm - N/A   Clear
5:28 AM 28.4 °F - 28.4 °F 100% 29.92 in 4.0 mi Calm Calm - N/A   Clear
5:48 AM 28.4 °F - 28.4 °F 100% 29.91 in 5.0 mi Calm Calm - N/A   Scattered Clouds
6:08 AM 26.6 °F - 26.6 °F 100% 29.92 in 5.0 mi Calm Calm - N/A   Clear
6:28 AM 28.4 °F - 26.6 °F 93% 29.93 in 7.0 mi Calm Calm - N/A   Clear
6:48 AM 26.6 °F - 26.6 °F 100% 29.94 in 5.0 mi Calm Calm - N/A   Clear
7:08 AM 28.4 °F - 26.6 °F 93% 29.94 in 5.0 mi Calm Calm - N/A   Mostly Cloudy
7:28 AM 28.4 °F - 28.4 °F 100% 29.95 in 4.0 mi Calm Calm - N/A   Mostly Cloudy
7:48 AM 28.4 °F - 28.4 °F 100% 29.95 in 5.0 mi Calm Calm - N/A   Overcast
8:08 AM 28.4 °F - 28.4 °F 100% 29.96 in 5.0 mi Calm Calm - N/A   Mostly Cloudy
8:28 AM 30.2 °F - 30.2 °F 100% 29.97 in 5.0 mi Calm Calm - N/A   Scattered Clouds
8:48 AM 30.2 °F - 30.2 °F 100% 29.98 in 4.0 mi Calm Calm - N/A   Scattered Clouds
9:08 AM 30.2 °F - 30.2 °F 100% 29.99 in 4.0 mi Calm Calm - N/A   Scattered Clouds
9:28 AM 32.0 °F - 30.2 °F 93% 29.99 in 5.0 mi Calm Calm - N/A   Scattered Clouds
9:48 AM 32.0 °F - 32.0 °F 100% 30.00 in 5.0 mi Calm Calm - N/A   Overcast
10:08 AM 32.0 °F - 32.0 °F 100% 30.01 in 5.0 mi Calm Calm - N/A   Overcast
10:29 AM 32.0 °F 28.7 °F 32.0 °F 100% 30.01 in 5.0 mi ESE 3.5 mph - N/A   Mostly Cloudy
10:49 AM 33.8 °F 29.6 °F 33.8 °F 100% 30.01 in 10.0 mi East 4.6 mph - N/A   Scattered Clouds
11:09 AM 33.8 °F - 33.8 °F 100% 30.00 in 7.0 mi Calm Calm - N/A   Scattered Clouds
11:29 AM 35.6 °F - 33.8 °F 93% 30.00 in 7.0 mi Calm Calm - N/A   Clear
11:49 AM 35.6 °F - 33.8 °F 93% 29.98 in 10.0 mi Calm Calm - N/A   Mostly Cloudy
12:09 PM 37.4 °F - 32.0 °F 81% 29.97 in 10.0 mi Calm Calm - N/A   Overcast
12:29 PM 37.4 °F - 32.0 °F 81% 29.96 in 10.0 mi Calm Calm - N/A   Overcast
12:49 PM 37.4 °F - 32.0 °F 81% 29.95 in 10.0 mi Calm Calm - N/A   Overcast
1:09 PM 39.2 °F 35.9 °F 28.4 °F 65% 29.95 in 10.0 mi West 4.6 mph - N/A   Mostly Cloudy
1:29 PM 39.2 °F 35.0 °F 26.6 °F 61% 29.95 in 10.0 mi WNW 5.8 mph 16.1 mph N/A   Clear
1:49 PM 39.2 °F 34.2 °F 24.8 °F 56% 29.95 in 10.0 mi West 6.9 mph - N/A   Clear
2:09 PM 39.2 °F 35.9 °F 26.6 °F 61% 29.95 in 10.0 mi WNW 4.6 mph - N/A   Clear
2:29 PM 39.2 °F - 26.6 °F 61% 29.95 in 10.0 mi Calm Calm - N/A   Clear
2:49 PM 39.2 °F - 26.6 °F 61% 29.95 in 10.0 mi Calm Calm - N/A   Clear
3:09 PM 39.2 °F - 26.6 °F 61% 29.95 in 10.0 mi Calm Calm - N/A   Clear
3:29 PM 39.2 °F - 26.6 °F 61% 29.96 in 10.0 mi Calm Calm - N/A   Scattered Clouds
3:49 PM 39.2 °F 35.9 °F 26.6 °F 61% 29.96 in 10.0 mi SW 4.6 mph - N/A   Scattered Clouds
4:09 PM 39.2 °F 35.9 °F 24.8 °F 56% 29.96 in 10.0 mi WSW 4.6 mph - N/A   Clear
4:29 PM 39.2 °F 33.0 °F 23.0 °F 52% 29.97 in 10.0 mi WNW 9.2 mph - N/A   Scattered Clouds
4:49 PM 37.4 °F 31.4 °F 23.0 °F 56% 29.97 in 10.0 mi WNW 8.1 mph - N/A   Scattered Clouds
5:09 PM 37.4 °F 33.8 °F 23.0 °F 56% 29.97 in 10.0 mi West 4.6 mph - N/A   Scattered Clouds
5:29 PM 37.4 °F 33.8 °F 21.2 °F 52% 29.97 in 10.0 mi West 4.6 mph - N/A   Clear
5:49 PM 37.4 °F 33.8 °F 23.0 °F 56% 29.97 in 10.0 mi WNW 4.6 mph - N/A   Clear
6:09 PM 37.4 °F - 21.2 °F 52% 29.98 in 10.0 mi Calm Calm - N/A   Clear
6:29 PM 37.4 °F 33.8 °F 21.2 °F 52% 29.99 in 10.0 mi NW 4.6 mph - N/A   Scattered Clouds
6:49 PM 37.4 °F 30.8 °F 21.2 °F 52% 29.99 in 10.0 mi West 9.2 mph - N/A   Clear
7:10 PM 37.4 °F 33.8 °F 19.4 °F 48% 29.99 in 10.0 mi West 4.6 mph - N/A   Scattered Clouds
7:30 PM 37.4 °F 33.8 °F 21.2 °F 52% 30.00 in 10.0 mi WNW 4.6 mph - N/A   Scattered Clouds
7:50 PM 35.6 °F 29.2 °F 21.2 °F 56% 30.00 in 10.0 mi WNW 8.1 mph - N/A   Clear
8:10 PM 35.6 °F 31.7 °F 19.4 °F 52% 30.00 in 10.0 mi NW 4.6 mph - N/A   Scattered Clouds
8:30 PM 35.6 °F 30.7 °F 19.4 °F 52% 30.01 in 10.0 mi NNW 5.8 mph - N/A   Scattered Clouds
8:50 PM 35.6 °F 30.7 °F 19.4 °F 52% 30.00 in 10.0 mi NW 5.8 mph - N/A   Scattered Clouds
9:10 PM 35.6 °F 30.7 °F 19.4 °F 52% 30.02 in 10.0 mi NNW 5.8 mph - N/A   Mostly Cloudy
9:30 PM 35.6 °F 29.9 °F 19.4 °F 52% 30.02 in 10.0 mi NW 6.9 mph 18.4 mph N/A   Scattered Clouds
9:50 PM 35.6 °F 30.7 °F 19.4 °F 52% 30.02 in 10.0 mi West 5.8 mph - N/A   Scattered Clouds
10:10 PM 33.8 °F 26.4 °F 19.4 °F 56% 30.02 in 10.0 mi NNW 9.2 mph - N/A   Mostly Cloudy
10:30 PM 33.8 °F 26.4 °F 19.4 °F 56% 30.02 in 10.0 mi NNW 9.2 mph - N/A   Overcast
10:50 PM 33.8 °F 24.8 °F 19.4 °F 56% 30.01 in 10.0 mi NNW 12.7 mph - N/A   Mostly Cloudy
11:10 PM 33.8 °F 27.7 °F 19.4 °F 56% 30.02 in 10.0 mi NW 6.9 mph - N/A   Overcast
11:30 PM 33.8 °F 28.6 °F 19.4 °F 56% 30.03 in 10.0 mi NW 5.8 mph - N/A   Overcast
11:50 PM 33.8 °F 29.6 °F 19.4 °F 56% 30.01 in 10.0 mi NNW 4.6 mph - N/A   Mostly Cloudy